Vertical_Velocity
-3 1 3 1 -1 -2 -3 -3 -2 -0 1 -1 -1 -2 -0 -2 -4 2 -3 -4 -6 -2 -2 -2 -1 -0 1 1 2 5 2 18 -4 5 1 1 7 16 -4 -24 -7 -6 -2
-2 2 3 -2 -2 -2 -2 -2 -3 -1 0 -0 -0 -1 -2 -5 -3 2 -4 -4 -5 -3 -2 -3 -3 -1 -1 -2 -0 2 -1 4 8 2 6 -0 -4 3 -3 -9 53 130 -16
-1 0 0 -4 -2 -2 -3 -3 0 -0 1 0 -0 -1 -1 -3 -1 0 -4 -1 -5 -6 -5 -2 -1 -1 -0 1 -1 -0 -0 1 -5 -2 -6 4 3 1 3 -10 6 -17 -27
0 -1 -4 -3 -2 -2 -2 -0 -0 -0 -2 -2 0 1 -1 -1 0 0 -3 -2 -4 -6 -5 -3 -1 1 2 1 -1 -2 -2 1 8 3 1 -6 -2 11 1 4 -8 -22 -10
-0 -4 -4 -2 -1 -2 -1 -1 -2 -4 -2 -0 -0 -2 -2 0 1 2 -1 -1 -1 -6 1 -3 -3 -2 1 2 2 1 -1 -3 3 19 -6 8 -13 10 2 -5 -8 8 5
-2 -4 -1 -1 -2 -1 -2 -4 -4 -2 -0 -1 -1 -0 -1 -1 -1 1 0 -0 -2 1 5 4 -4 1 1 1 -1 1 0 0 -3 3 -6 -2 -3 -3 -2 -2 8 -5 27
-4 -1 0 -2 -1 -1 -3 -3 -3 -2 -2 -2 -1 -0 -1 -0 -1 -0 -0 3 -2 -2 -2 -4 6 6 -3 -0 -1 -1 -2 -4 -0 0 4 -0 -1 -9 -0 8 -17 -0 9
-1 -1 -2 -1 -1 -2 -3 -3 -3 -3 -3 -1 0 -1 -0 -1 -1 1 1 -3 1 1 -1 0 -2 -1 3 -2 -2 -3 1 5 6 2 2 2 1 -3 -5 -6 5 6 -7
-2 -2 -0 -1 -3 -3 -3 -3 -3 -2 -1 -0 -1 0 -1 -0 1 1 2 3 -1 1 2 1 -1 2 2 -2 -2 -3 -2 -2 4 13 4 3 1 8 -1 -5 -14 -11 8
-2 0 -2 -5 -3 -2 -3 -3 -2 -2 -1 -1 0 -0 -1 1 2 2 2 0 1 -2 -2 -1 0 1 1 1 1 -1 -7 -2 4 5 5 10 4 5 3 0 -10 4 -4
0 -2 -4 -3 -2 -3 -3 -2 -2 -2 -2 -1 -1 -0 1 1 0 1 0 1 -1 -1 2 2 0 -2 -2 -3 -2 -1 -3 1 -1 -7 -2 -0 1 -1 2 4 -1 -1 -3
-1 -3 -4 -3 -3 -3 -2 -4 -3 -2 -1 -0 0 1 1 1 1 -0 -3 -3 -2 1 -0 -1 -1 -2 -1 -3 -2 -2 -2 0 2 2 3 3 2 5 4 -7 -6 -2 1
-3 -3 -3 -3 -3 -3 -3 -3 -2 -2 -1 -1 -0 0 1 1 0 -0 1 2 0 -1 -3 -2 -1 -2 -1 1 2 -0 1 2 -0 -1 -0 0 -1 3 6 1 -6 1 3
-2 -2 -1 -2 -1 -1 -1 -1 -1 -0 0 1 1 1 1 1 1 2 3 1 2 2 3 -1 -3 -5 -3 -2 0 -1 -0 -2 -2 -0 0 -1 -2 -6 -3 -3 1 -3 -1
-2 -2 -2 -1 -0 -0 0 -0 -0 -1 -1 -2 -2 -2 -2 -2 -4 -5 -4 -2 -2 -3 -5 -4 -2 -0 0 -0 -2 -3 -0 -1 -1 -2 -4 -5 -6 -4 -1 1 2 1 -2
-2 -1 -1 -0 -1 -1 -1 -0 -4 -2 -1 -1 -2 -1 -1 -2 -1 -1 -1 -2 -3 -2 -1 -0 0 -1 -2 -4 -3 -0 -1 -2 -1 -2 -2 -2 -2 -3 -5 -3 -5 -7 -2
1 0 -1 -2 -2 -2 -3 -4 -4 3 -3 -3 -2 -2 -2 -2 -2 -2 -1 -1 0 -0 0 -1 -2 -3 -4 -4 -3 -4 -5 -6 -5 -5 -5 -5 -4 -2 -2 -0 4 2 0
-1 -1 -1 -1 -1 -1 -1 -1 -0 -1 -5 -7 6 -1 -2 -0 -1 -2 -3 -3 -5 -4 -3 -3 -4 -4 -3 -3 -3 -3 -3 -3 -2 -2 -2 -2 -4 -6 -6 -5 -5 -5 -3
0 -0 -0 -0 0 0 -0 -0 -0 -1 -1 -1 -3 -2 -2 -2 2 3 1 -2 -2 -2 -3 -4 -3 -3 -3 -4 -4 -4 -4 -3 -3 -3 -2 -2 -2 -3 -1 -2 -2 -3 -6
-0 1 1 1 1 1 -0 0 -1 -1 -2 -2 -3 0 -1 -3 -3 -3 -3 -1 -1 1 0 -1 -2 -4 -4 -4 -4 -4 -4 -4 -4 -4 -4 -4 -3 -4 -4 -4 -3 -3 -3
1 2 0 1 -0 -0 0 -1 -1 -1 -2 -2 -4 1 -2 -2 -2 -1 -1 -0 -2 -3 -2 -2 -1 -1 -1 -1 -2 -3 -4 -3 -3 -4 -4 -4 -5 -5 -4 -4 -5 -5 -6
-0 -1 -1 1 0 -1 1 -0 -1 -1 -1 -1 -2 -9 4 -1 -2 -2 -2 -2 -2 -2 -2 -2 -2 -1 -1 -2 -2 -2 -2 -2 -2 -4 -5 -4 -3 -2 -3 -3 -2 -3 -4
-0 1 1 -1 1 0 1 -0 -1 -0 0 -0 -1 -1 -1 -2 -1 -1 -2 -2 -2 -2 -2 -2 -2 -2 -2 -2 -2 -2 -1 -1 -1 -2 -2 -3 -3 -5 -5 -4 -4 -3 -3
-0 2 2 1 0 1 -0 -0 -1 -2 -0 -0 -0 -0 -0 -0 -1 -1 -1 -1 -2 -1 -2 -1 -1 -2 -2 -2 -2 -2 -2 -2 -1 -2 -2 -3 -2 -1 -0 0 -2 -5 -8
1 2 2 1 0 -1 0 -1 0 -0 -0 0 0 -0 -0 0 -1 -1 -1 -2 -1 -1 -1 -1 -1 -1 -1 -1 -1 -1 -2 -1 -1 -1 -2 -2 -1 -1 -0 -1 -2 -0 1
2 1 1 0 1 1 1 1 1 1 1 1 0 0 -0 -0 0 -0 -0 -0 -1 -1 -1 -1 -1 -1 -1 -1 -1 -1 -1 -1 -2 -1 -2 -3 -3 -2 -3 -2 -1 -3 -3
Height
3053 3050 3047 3045 3042 3038 3034 3031 3027 3023 3020 3015 3010 3005 2999 2994 2989 2984 2978 2972 2965 2954 2946 2940 2938 2936 2936 2937 2939 2945 2950 2953 2954 2962 2966 2970 2973 2977 2980 2987 2991 2995 2999
3049 3046 3044 3041 3038 3034 3030 3026 3022 3017 3013 3009 3005 3000 2994 2989 2984 2979 2973 2967 2959 2950 2941 2935 2931 2929 2928 2929 2931 2934 2937 2943 2946 2950 2955 2961 2964 2966 2970 2975 2969 2966 2986
3045 3043 3039 3036 3032 3028 3024 3019 3015 3010 3006 3002 2998 2994 2990 2985 2980 2974 2968 2962 2956 2947 2937 2930 2925 2922 2921 2922 2923 2925 2928 2932 2937 2939 2944 2950 2954 2957 2958 2960 2960 2964 2967
3040 3037 3034 3030 3027 3022 3018 3013 3008 3004 3000 2996 2992 2988 2984 2981 2975 2970 2965 2959 2953 2946 2937 2928 2922 2919 2917 2916 2917 2918 2921 2924 2927 2930 2935 2940 2944 2947 2946 2949 2951 2953 2949
3035 3032 3029 3026 3022 3017 3012 3008 3003 2999 2995 2991 2987 2984 2980 2977 2972 2967 2962 2957 2951 2945 2938 2929 2921 2915 2912 2911 2910 2911 2913 2916 2917 2919 2923 2926 2929 2934 2936 2939 2938 2940 2943
3030 3027 3024 3022 3018 3013 3009 3004 2999 2995 2991 2988 2984 2981 2977 2973 2969 2964 2960 2955 2951 2945 2939 2931 2925 2918 2912 2908 2906 2905 2905 2906 2909 2910 2913 2918 2920 2922 2925 2927 2925 2927 2933
3026 3025 3022 3018 3015 3012 3007 3001 2997 2992 2989 2986 2982 2979 2975 2971 2967 2962 2958 2954 2950 2945 2939 2933 2926 2921 2916 2910 2905 2902 2901 2900 2900 2902 2905 2907 2909 2910 2914 2915 2915 2918 2920
3025 3022 3019 3017 3014 3010 3006 3002 2998 2994 2990 2986 2983 2979 2974 2970 2966 2962 2958 2954 2949 2944 2939 2933 2927 2921 2917 2914 2909 2905 2901 2899 2895 2894 2896 2898 2900 2901 2902 2904 2904 2906 2908
3022 3020 3019 3016 3013 3009 3006 3003 2999 2996 2992 2989 2985 2981 2977 2973 2968 2964 2959 2954 2950 2945 2939 2934 2929 2924 2918 2914 2911 2908 2903 2899 2896 2891 2890 2890 2892 2891 2891 2894 2895 2898 2900
3022 3021 3018 3015 3013 3010 3007 3004 3001 2997 2994 2991 2988 2983 2978 2974 2970 2965 2961 2956 2951 2946 2941 2936 2930 2925 2921 2916 2912 2909 2905 2901 2897 2892 2890 2889 2887 2884 2883 2884 2886 2886 2886
3022 3020 3018 3015 3013 3011 3008 3006 3002 2999 2996 2992 2988 2984 2979 2975 2970 2966 2962 2957 2951 2946 2941 2936 2931 2926 2922 2917 2913 2910 2905 2902 2898 2894 2890 2888 2886 2883 2880 2878 2879 2880 2878
3022 3020 3018 3016 3014 3012 3009 3007 3004 3001 2998 2994 2990 2985 2980 2976 2971 2966 2961 2957 2952 2946 2941 2936 2932 2927 2923 2920 2916 2911 2906 2903 2900 2895 2892 2888 2885 2882 2877 2877 2875 2875 2874
3021 3019 3018 3016 3014 3012 3010 3008 3005 3002 2999 2995 2991 2986 2982 2977 2972 2967 2962 2957 2952 2947 2942 2937 2933 2929 2924 2921 2917 2913 2909 2904 2899 2895 2891 2886 2882 2879 2877 2875 2875 2872 2870
3021 3019 3018 3016 3014 3012 3010 3007 3005 3002 2998 2995 2991 2987 2982 2977 2973 2968 2963 2958 2953 2947 2943 2939 2934 2929 2924 2920 2916 2911 2905 2901 2896 2892 2889 2884 2880 2878 2875 2872 2870 2869 2868
3019 3018 3017 3015 3014 3012 3010 3007 3004 3001 2998 2994 2990 2985 2981 2976 2972 2966 2961 2956 2951 2945 2940 2935 2931 2926 2922 2917 2912 2907 2902 2898 2893 2889 2884 2881 2878 2875 2871 2869 2866 2864 2861
3018 3017 3016 3014 3012 3010 3008 3006 3002 2999 2995 2991 2986 2982 2977 2972 2967 2961 2956 2951 2946 2942 2938 2933 2928 2923 2918 2913 2908 2903 2898 2893 2887 2882 2878 2873 2869 2866 2865 2863 2859 2855 2853
3016 3015 3014 3012 3010 3008 3005 3002 2999 2996 2991 2986 2982 2978 2973 2969 2963 2958 2953 2948 2944 2939 2934 2929 2923 2918 2913 2908 2903 2898 2893 2887 2882 2878 2874 2869 2865 2861 2856 2853 2851 2849 2847
3015 3013 3012 3010 3007 3004 3001 2998 2994 2990 2986 2982 2979 2973 2968 2964 2959 2954 2949 2944 2939 2934 2928 2923 2918 2913 2908 2904 2899 2894 2889 2884 2879 2874 2869 2864 2860 2855 2852 2848 2844 2840 2837
3012 3011 3008 3006 3003 3000 2997 2994 2990 2986 2981 2977 2972 2967 2962 2957 2954 2950 2945 2939 2934 2929 2924 2918 2913 2908 2903 2898 2893 2888 2883 2878 2873 2869 2864 2859 2855 2851 2847 2842 2839 2835 2831
3007 3006 3004 3001 2999 2996 2993 2989 2984 2980 2975 2970 2966 2962 2956 2951 2946 2941 2936 2931 2926 2920 2916 2911 2906 2902 2897 2892 2887 2882 2877 2872 2867 2862 2858 2854 2850 2845 2841 2838 2834 2830 2826
3003 3001 2999 2996 2993 2990 2987 2983 2979 2974 2970 2965 2959 2956 2951 2945 2940 2935 2930 2925 2920 2914 2909 2904 2898 2893 2889 2884 2879 2875 2870 2866 2861 2857 2852 2847 2843 2839 2835 2831 2828 2824 2820
2997 2995 2993 2990 2987 2983 2980 2976 2971 2967 2962 2957 2953 2946 2943 2939 2933 2928 2923 2917 2912 2907 2902 2897 2892 2887 2882 2877 2871 2867 2862 2858 2854 2850 2847 2842 2837 2833 2829 2825 2821 2817 2813
2989 2987 2984 2981 2979 2975 2972 2968 2963 2959 2955 2950 2945 2940 2935 2931 2926 2921 2916 2910 2905 2900 2895 2890 2885 2879 2874 2869 2864 2859 2855 2850 2846 2841 2838 2834 2830 2826 2822 2818 2815 2811 2807
2981 2979 2977 2973 2970 2967 2963 2959 2955 2950 2946 2942 2938 2933 2928 2923 2918 2913 2908 2903 2898 2893 2888 2883 2878 2872 2867 2862 2858 2853 2848 2843 2839 2835 2831 2827 2823 2819 2814 2811 2807 2804 2800
2973 2971 2968 2965 2961 2958 2954 2950 2947 2942 2938 2933 2929 2924 2920 2915 2910 2905 2900 2895 2890 2886 2881 2876 2871 2866 2861 2856 2851 2846 2841 2836 2832 2829 2825 2820 2816 2812 2808 2805 2801 2798 2794
2964 2961 2959 2955 2952 2949 2945 2942 2937 2933 2929 2925 2920 2916 2911 2906 2901 2897 2892 2887 2883 2878 2873 2868 2863 2858 2853 2848 2843 2838 2833 2829 2824 2820 2816 2812 2809 2805 2802 2798 2795 2791 2788